Home   Weather   Angers   Past weeks

Flag for France Past Weather in Angers, Pays de la Loire, France — Yesterday and Last 2 Weeks

Now
57 °F

Mostly cloudy.


Feels Like: 57 °F
Forecast: 50 / 62 °F
Wind: 2 mph from North

Location: Le Mans Airport

Current Time: Sep 30, 2016 at 8:36:38 PM

Latest Report: Sep 30, 2016 at 8:00 PM


Visibility: N/A

Pressure: 29.92 "Hg

Humidity: 94%

Dew Point: 55 °F

Location of AngersLocation

Past Weather in Angers — Graph

°F

Angers Temperature Yesterday

Maximum temperature yesterday: 75 °F (at 4:30 PM)
Minimum temperature yesterday: 54 °F (at 2:30 AM)
Average temperature yesterday: 64 °F

High & Low Weather Summary for the Past Weeks

 TemperatureHumidityPressure
High81 °F (Sep 24, 4:30 PM)100% (Sep 21, 5:30 AM)30.42 "Hg (Sep 21, 5:30 AM)
Low48 °F (Sep 24, 5:00 AM)32% (Sep 24, 4:30 PM)29.89 "Hg (Sep 15, 7:00 PM)
Average62 °F75%30.14 "Hg
* Reported Sep 15 7:00 PM — Sep 30 7:30 PM, Angers, Weather by CustomWeather, © 2016

Note: Actual official high and low records may vary slightly from our data, if they occured in-between our weather recording intervals... More about our weather records

Advertising

Angers Weather History for the Previous 24 Hours

Scroll right to see more
 ConditionsComfort  
Time TempWeatherWind HumidityBarometerVisibility
7:30 PM
Fri, Sep 30
55 °FMore clouds than sun.2 mph100%29.95 "HgN/A
7:00 PM55 °FCool.5 mph94%29.95 "HgN/A
6:30 PM57 °FLight rain. Cloudy.2 mph94%29.95 "HgN/A
6:00 PM55 °FLight rain. Cloudy.No wind94%29.98 "HgN/A
5:30 PM57 °FRain. More clouds than sun.2 mph88%29.98 "Hg5 mi
5:00 PM57 °FRain. Broken clouds.2 mph88%29.98 "Hg4 mi
4:30 PM59 °FRain. More clouds than sun.3 mph88%29.98 "HgN/A
4:00 PM61 °FLight rain. Partly sunny.3 mph83%29.98 "HgN/A
3:30 PM61 °FRain. Cloudy.3 mph83%29.98 "HgN/A
3:00 PM63 °FMild.2 mph73%29.98 "HgN/A
2:30 PM63 °FOvercast.3 mph73%29.98 "HgN/A
2:00 PM63 °FRain. Partly sunny.5 mph73%30.01 "HgN/A
1:30 PM64 °FPartly sunny.No wind64%30.01 "HgN/A
1:00 PM63 °FSunny.3 mph64%30.01 "Hg10 mi
12:30 PM63 °FPassing clouds.3 mph64%30.04 "HgN/A
12:00 PM64 °FPartly sunny.3 mph64%30.04 "HgN/A
11:30 AM63 °FSunny.2 mph64%30.04 "Hg10 mi
11:00 AM61 °FSunny.3 mph72%30.04 "Hg10 mi
10:30 AM61 °FSunny.2 mph72%30.04 "Hg10 mi
10:00 AM61 °FPassing clouds.3 mph77%30.04 "HgN/A
9:30 AM57 °FSunny.2 mph82%30.04 "Hg10 mi
9:00 AM57 °FSunny.2 mph82%30.04 "Hg10 mi
8:30 AM57 °FSunny.1 mph82%30.01 "Hg10 mi
8:00 AM57 °FBroken clouds.2 mph82%30.01 "HgN/A
7:30 AM57 °FOvercast.1 mph82%30.04 "HgN/A
7:00 AM57 °FMostly cloudy.2 mph82%30.01 "HgN/A
6:30 AM59 °FMostly cloudy.1 mph77%30.01 "HgN/A
6:00 AM59 °FMostly cloudy.No wind77%30.01 "HgN/A
5:30 AM59 °FMostly cloudy.2 mph77%30.01 "HgN/A
5:00 AM59 °FMostly cloudy.3 mph77%30.01 "HgN/A
4:30 AM59 °FMostly cloudy.2 mph82%30.01 "HgN/A
4:00 AM61 °FPassing clouds.3 mph77%30.04 "HgN/A
3:30 AM61 °FMostly cloudy.2 mph77%30.04 "HgN/A
3:00 AM61 °FOvercast.2 mph77%30.04 "HgN/A
2:30 AM61 °FOvercast.3 mph77%30.04 "HgN/A
2:00 AM61 °FOvercast.3 mph77%30.04 "HgN/A
1:30 AM61 °FOvercast.2 mph77%30.04 "HgN/A
1:00 AM61 °FOvercast.2 mph72%30.04 "HgN/A
12:30 AM61 °FOvercast.1 mph72%30.04 "HgN/A
12:00 AM61 °FOvercast.6 mph72%30.07 "HgN/A
11:30 PM
Thu, Sep 29
61 °FMostly cloudy.6 mph77%30.07 "HgN/A
11:00 PM63 °FOvercast.12 mph77%30.07 "HgN/A
10:30 PM63 °FPassing clouds.7 mph83%30.07 "HgN/A
10:00 PM61 °FPassing clouds.1 mph88%30.07 "HgN/A
9:30 PM61 °FClear.No wind88%30.04 "Hg10 mi
9:00 PM63 °FClear.No wind83%30.04 "Hg10 mi
8:30 PM66 °FClear.1 mph78%30.04 "Hg10 mi
8:00 PM68 °FClear.2 mph73%30.04 "Hg10 mi
Weather by CustomWeather, © 2016

See weather overviewHow to use our weather pages